Location: ??????
(38.1303°N, 24.0039°E)
Time: 18:13:51
(UTC+00:00)

IDEFIX/ARIANE 42P - Pass Details

Date: 20 June 2021
Orbit: 784 x 803 km, 98.4° (Epoch: 26 July)

Event Time Altitude Azimuth Distance (km) Brightness Sun altitude
Rises 01:41:10 0° 4° (N) 3,309 6.6 -13.2°
Reaches altitude 10° 01:43:37 10° 358° (N) 2,373 5.7 -12.9°
Maximum altitude 01:48:29 41° 290° (WNW) 1,142 3.2 -12.2°
Enters shadow 01:52:17 16° 226° (SW) 1,976 4.0 -11.7°
